Weather History for Great Bend, KS

Change the Weather History Date:

Saturday, March 30, 2013

  Actual Average Record
Temperature  
Mean Temperature 58 °F -  
Max Temperature 69 °F 61 °F 85 °F (1986)
Min Temperature 46 °F 35 °F 8 °F (1987)
Degree Days  
Heating Degree Days 8    
Growing Degree Days 8 (Base 50)    
Moisture  
Dew Point 49 °F    
Average Humidity 74    
Maximum Humidity 94    
Minimum Humidity 43    
Precipitation  
Precipitation 0.04 in - - ()
Sea Level Pressure  
Sea Level Pressure 29.95 in    
Wind  
Wind Speed 10 mph (North)    
Max Wind Speed 25 mph    
Max Gust Speed 32 mph    
Visibility 8 miles    
Events Thunderstorm    
Averages and records for this station are not official NWS values.
T = Trace of Precipitation, MM = Missing Value Source: NWS Daily Summary

Daily Weather History Graph

Daily Weather History Graph

Search for Another Location

Airport:

Trip Planner

Search our weather history database for the weather conditions in past years. The results will help you decide how hot, cold, wet, or windy it might be!

Date:

Astronomy

Mar. 30, 2013 Rise Set
Actual Time 7:23 AM CDT 7:57 PM CDT
Civil Twilight 6:56 AM CDT 8:23 PM CDT
Nautical Twilight 6:25 AM CDT 8:55 PM CDT
Astronomical Twilight 5:53 AM CDT 9:27 PM CDT
Moon No Moon Rise 9:22 AM CDT (3/30)
Length of Visible Light 13h 27m
Length of Day
12h 34m
Waning Gibbous, 86% of the Moon is Illuminated
Mar 30
Waning Gibbous
Apr 2
Last Quarter
Apr 10
New
Apr 18
First Quarter
Apr 25
Full

Hourly Weather History & Observations

Time (CDT) Temp. Dew Point Humidity Pressure Visibility Wind Dir Wind Speed Gust Speed Precip Events Conditions
12:15 AM 57.2 °F 51.8 °F 82% 30.01 in 10.0 mi SSE 12.7 mph - N/A   Clear
12:35 AM 55.4 °F 51.8 °F 88% 29.99 in 10.0 mi SE 12.7 mph - N/A   Clear
12:55 AM 55.4 °F 51.8 °F 88% 29.98 in 9.0 mi SSE 11.5 mph - N/A   Clear
1:15 AM 55.4 °F 51.8 °F 88% 29.98 in 8.0 mi SSE 8.1 mph - N/A   Clear
1:35 AM 53.6 °F 50.0 °F 88% 29.98 in 7.0 mi SSE 4.6 mph - N/A   Clear
1:55 AM 53.6 °F 50.0 °F 88% 30.00 in 6.0 mi NNE 10.4 mph - N/A   Mostly Cloudy
2:15 AM 53.6 °F 51.8 °F 94% 30.01 in 6.0 mi NNE 5.8 mph - N/A Thunderstorm Thunderstorm
2:35 AM 55.4 °F 51.8 °F 88% 30.01 in 5.0 mi ENE 9.2 mph 19.6 mph 0.03 in Thunderstorm Thunderstorm
2:55 AM 55.4 °F 53.6 °F 94% 29.97 in 5.0 mi SSE 9.2 mph - 0.03 in Thunderstorm Overcast
3:15 AM 55.4 °F 51.8 °F 88% 29.93 in 7.0 mi SSE 10.4 mph - 0.01 in Thunderstorm Mostly Cloudy
3:35 AM 55.4 °F 51.8 °F 88% 29.96 in 7.0 mi NNW 3.5 mph - 0.01 in   Partly Cloudy
3:55 AM 55.4 °F 51.8 °F 88% 29.94 in 7.0 mi South 11.5 mph - 0.01 in   Scattered Clouds
4:15 AM 53.6 °F 51.8 °F 94% 29.94 in 5.0 mi WSW 3.5 mph - N/A   Clear
4:35 AM 53.6 °F 50.0 °F 88% 29.94 in 3.0 mi WSW 8.1 mph - N/A   Clear
4:55 AM 51.8 °F 50.0 °F 94% 29.94 in 3.0 mi WSW 9.2 mph - N/A   Clear
5:15 AM 51.8 °F 48.2 °F 88% 29.94 in 1.8 mi WSW 5.8 mph - N/A   Clear
5:35 AM 51.8 °F 48.2 °F 88% 29.94 in 0.2 mi Calm Calm - N/A   Overcast
5:55 AM 46.4 °F 44.6 °F 93% 29.95 in 0.2 mi Calm Calm - N/A   Overcast
6:15 AM 48.2 °F 46.4 °F 93% 29.95 in 0.2 mi SE 3.5 mph - N/A   Overcast
6:35 AM 48.2 °F 46.4 °F 93% 29.95 in 0.2 mi SE 4.6 mph - N/A   Overcast
6:55 AM 48.2 °F 46.4 °F 93% 29.95 in 0.5 mi South 3.5 mph - N/A   Overcast
7:15 AM 50.0 °F 48.2 °F 94% 29.95 in 1.5 mi South 5.8 mph - N/A   Overcast
7:35 AM 51.8 °F 48.2 °F 88% 29.95 in 1.0 mi SW 5.8 mph - N/A   Overcast
7:55 AM 51.8 °F 50.0 °F 94% 29.95 in 1.2 mi SSW 6.9 mph - N/A   Overcast
8:15 AM 53.6 °F 51.8 °F 94% 29.95 in 1.0 mi SSW 8.1 mph - N/A   Overcast
8:35 AM 53.6 °F 51.8 °F 94% 29.95 in 0.5 mi SW 6.9 mph - N/A   Overcast
8:55 AM 53.6 °F 51.8 °F 94% 29.95 in 1.5 mi SW 9.2 mph - N/A   Overcast
9:15 AM 53.6 °F 51.8 °F 94% 29.96 in 3.0 mi WSW 8.1 mph - N/A   Scattered Clouds
9:35 AM 53.6 °F 51.8 °F 94% 29.96 in 10.0 mi WNW 11.5 mph - N/A   Clear
9:55 AM 55.4 °F 48.2 °F 77% 29.96 in 10.0 mi WNW 11.5 mph - N/A   Clear
10:15 AM 57.2 °F 48.2 °F 72% 29.96 in 10.0 mi NW 12.7 mph - N/A   Clear
10:35 AM 57.2 °F 48.2 °F 72% 29.95 in 10.0 mi NW 15.0 mph - N/A   Clear
10:55 AM 57.2 °F 48.2 °F 72% 29.95 in 10.0 mi NW 11.5 mph - N/A   Clear
11:15 AM 59.0 °F 48.2 °F 67% 29.95 in 10.0 mi NW 12.7 mph - N/A   Clear
11:35 AM 60.8 °F 48.2 °F 63% 29.95 in 10.0 mi NNW 12.7 mph - N/A   Clear
11:55 AM - - N/A% 29.95 in 10.0 mi NW 12.7 mph 19.6 mph N/A   Clear
12:15 PM 62.6 °F 50.0 °F 63% 29.96 in 10.0 mi NNW 12.7 mph - N/A   Clear
12:35 PM 62.6 °F 50.0 °F 63% 29.96 in 10.0 mi North 15.0 mph - N/A   Clear
12:55 PM 64.4 °F 50.0 °F 59% 29.95 in 10.0 mi North 13.8 mph 20.7 mph N/A   Clear
1:15 PM 64.4 °F 51.8 °F 64% 29.95 in 10.0 mi North 16.1 mph - N/A   Clear
1:35 PM 66.2 °F 51.8 °F 60% 29.94 in 10.0 mi North 17.3 mph 21.9 mph N/A   Clear
1:55 PM 66.2 °F 51.8 °F 60% 29.94 in 10.0 mi North 15.0 mph - N/A   Clear
2:15 PM 66.2 °F 53.6 °F 64% 29.94 in 10.0 mi North 17.3 mph 23.0 mph N/A   Clear
2:35 PM 68.0 °F 53.6 °F 60% 29.93 in 10.0 mi North 18.4 mph - N/A   Clear
2:55 PM 68.0 °F 53.6 °F 60% 29.93 in 10.0 mi NNW 13.8 mph - N/A   Clear
3:15 PM 69.8 °F 53.6 °F 56% 29.92 in 10.0 mi North 11.5 mph 19.6 mph N/A   Clear
3:35 PM 69.8 °F 51.8 °F 53% 29.92 in 10.0 mi NNE 13.8 mph - N/A   Clear
3:55 PM 69.8 °F 51.8 °F 53% 29.92 in 10.0 mi NNE 12.7 mph 18.4 mph N/A   Clear
4:15 PM 69.8 °F 51.8 °F 53% 29.92 in 10.0 mi NE 13.8 mph 19.6 mph N/A   Partly Cloudy
4:35 PM 69.8 °F 51.8 °F 53% 29.91 in 10.0 mi NNE 9.2 mph - N/A   Partly Cloudy
4:55 PM 69.8 °F 50.0 °F 49% 29.91 in 10.0 mi NNE 10.4 mph - N/A   Partly Cloudy
5:15 PM 69.8 °F 48.2 °F 46% 29.90 in 10.0 mi North 11.5 mph 17.3 mph N/A   Partly Cloudy
5:35 PM 69.8 °F 48.2 °F 46% 29.91 in 10.0 mi North 11.5 mph - N/A   Clear
5:55 PM 69.8 °F 48.2 °F 46% 29.91 in 10.0 mi North 9.2 mph - N/A   Clear
6:15 PM 69.8 °F 46.4 °F 43% 29.91 in 10.0 mi North 10.4 mph - N/A   Clear
6:35 PM 69.8 °F 46.4 °F 43% 29.92 in 10.0 mi NNE 10.4 mph - N/A   Clear
6:55 PM 68.0 °F 46.4 °F 46% 29.91 in 10.0 mi North 8.1 mph - N/A   Clear
7:15 PM 66.2 °F 48.2 °F 52% 29.91 in 10.0 mi NNE 10.4 mph - N/A   Clear
7:35 PM 62.6 °F 48.2 °F 59% 29.91 in 10.0 mi North 6.9 mph - N/A   Clear
7:55 PM 62.6 °F 46.4 °F 55% 29.91 in 10.0 mi NE 6.9 mph - N/A   Clear
8:15 PM 62.6 °F 48.2 °F 59% 29.91 in 10.0 mi ENE 3.5 mph - N/A   Clear
8:35 PM 60.8 °F 48.2 °F 63% 29.92 in 10.0 mi NE 6.9 mph - N/A   Clear
8:55 PM 55.4 °F 46.4 °F 72% 29.94 in 10.0 mi NNE 5.8 mph - N/A   Clear
9:15 PM 53.6 °F 46.4 °F 77% 29.95 in 10.0 mi NNE 3.5 mph - N/A   Clear
9:35 PM 51.8 °F 44.6 °F 76% 29.95 in 10.0 mi NNE 4.6 mph - N/A   Mostly Cloudy
9:55 PM 53.6 °F 46.4 °F 77% 29.96 in 10.0 mi North 6.9 mph - N/A   Overcast
10:15 PM 53.6 °F 46.4 °F 77% 29.96 in 10.0 mi NNE 6.9 mph - N/A   Scattered Clouds
10:35 PM 55.4 °F 46.4 °F 72% 29.98 in 10.0 mi North 5.8 mph - N/A   Mostly Cloudy
10:55 PM 55.4 °F 48.2 °F 77% 30.01 in 10.0 mi NNW 19.6 mph 25.3 mph N/A   Overcast
11:15 PM 53.6 °F 46.4 °F 77% 30.02 in 10.0 mi North 19.6 mph 25.3 mph N/A   Overcast
11:35 PM 53.6 °F 44.6 °F 72% 30.06 in 10.0 mi NNW 25.3 mph 32.2 mph N/A   Overcast
11:55 PM 51.8 °F 44.6 °F 76% 30.08 in 10.0 mi North 21.9 mph 29.9 mph N/A   Overcast